ECMWFNIL_prec_cthk_057.txt.gz
RH
65 64 65 61 56 56 56 56 58 59 57 54 54 55 51 45 40 36 33 30 27 25 23 23 22 23 24 26 26 25 20 16 15 13 12 12 11 10 10 10 14 19
69 66 67 66 61 58 56 55 59 60 58 58 57 54 48 41 37 35 34 33 30 28 26 27 27 26 25 24 23 24 21 20 20 19 16 15 14 12 11 11 13 18
71 69 69 69 65 59 55 56 60 62 61 61 58 51 45 40 38 38 39 37 34 32 31 31 31 31 30 28 28 27 24 23 22 20 17 17 17 15 14 15 17 20
72 71 70 71 66 60 56 56 60 60 58 57 54 50 47 44 42 42 42 41 39 38 37 36 35 36 35 34 35 32 29 27 25 24 21 18 17 16 16 17 18 21
74 72 71 72 66 59 56 54 55 56 54 52 52 51 50 48 46 46 44 44 45 43 41 40 39 39 39 40 41 37 35 33 29 27 26 24 22 22 20 20 19 20
79 74 71 70 65 59 59 56 54 54 53 52 51 52 52 51 51 49 46 46 47 46 45 44 43 44 46 48 50 49 48 44 39 37 35 32 30 29 30 29 28 28
82 77 73 71 67 65 64 59 55 54 52 51 51 52 54 54 54 51 48 48 50 51 51 51 49 50 52 56 58 59 58 55 53 52 49 45 41 39 40 39 38 37
85 80 75 72 72 71 67 59 54 52 51 51 53 53 53 55 54 51 51 53 56 58 59 58 56 54 56 61 64 64 63 64 64 64 61 58 56 55 53 50 47 47
84 81 76 73 72 71 66 57 52 52 51 52 54 52 51 53 54 53 55 58 60 62 61 60 60 59 59 63 66 68 70 70 69 69 67 66 66 64 63 60 58 57
79 78 77 73 68 66 65 58 52 52 52 52 53 52 48 50 53 55 59 60 60 61 61 61 62 63 63 64 66 70 73 73 73 73 72 72 72 72 71 70 68 66
71 73 75 71 66 65 65 59 50 47 49 50 51 51 50 51 55 59 60 59 59 57 59 63 64 63 64 65 66 69 72 73 73 73 74 74 75 76 76 76 74 72
64 68 71 69 66 65 62 60 54 48 48 51 49 48 51 55 57 59 60 59 58 57 59 62 62 62 64 65 67 70 71 71 71 72 75 74 72 73 75 75 75 75
65 67 68 66 65 66 63 62 61 56 54 55 50 46 49 54 56 58 60 59 59 62 65 62 57 58 62 64 67 68 67 68 68 69 71 71 68 69 71 72 74 74
68 70 70 65 62 64 63 60 59 59 58 58 52 46 47 49 52 56 57 58 63 67 66 60 57 60 62 63 67 67 63 62 64 67 70 69 69 70 67 66 69 70
69 70 69 64 59 60 62 60 59 60 62 62 57 50 48 47 49 53 54 56 61 62 61 58 59 64 65 64 65 61 58 61 66 69 73 73 72 72 67 62 62 63
63 61 62 63 61 61 63 63 63 63 65 65 60 53 50 47 48 52 59 67 67 60 58 60 61 64 64 62 60 55 56 66 72 72 74 73 70 66 63 62 61 59
57 58 59 61 60 58 60 64 65 66 69 68 61 55 52 50 49 50 58 73 77 68 63 65 67 68 65 62 60 56 57 64 70 70 68 67 63 58 55 56 59 58
55 56 56 56 57 57 60 66 68 69 74 73 67 62 59 56 54 50 51 62 72 72 71 74 76 72 67 64 64 64 61 59 60 61 59 58 57 52 48 48 49 50
54 54 52 53 57 61 64 69 70 70 73 72 70 69 68 64 61 58 56 59 64 71 76 80 79 73 69 69 68 65 61 54 52 53 51 50 49 45 43 43 42 43
54 53 52 52 56 60 62 65 66 68 69 68 69 70 72 72 71 68 68 67 68 74 80 80 77 73 69 66 63 59 53 45 44 48 47 44 39 35 34 35 34 34
51 51 53 53 53 54 56 57 59 60 62 63 63 65 68 74 76 74 73 72 72 76 75 69 65 62 57 52 50 47 42 38 41 47 48 43 35 31 30 30 29 31
50 51 52 53 52 52 55 58 59 60 59 58 58 61 65 70 73 73 72 71 71 71 65 56 52 51 48 45 44 40 38 42 47 49 49 48 43 39 37 32 31 37
53 51 51 50 51 53 55 58 59 59 59 58 58 62 66 68 68 69 66 63 61 60 55 48 48 50 49 46 45 42 40 47 54 54 54 56 56 53 47 38 34 39
56 54 53 53 53 56 58 59 58 57 56 56 56 57 58 57 55 54 52 51 51 50 46 41 42 45 45 43 43 41 40 45 55 59 61 61 61 59 56 49 43 41
65 62 62 62 62 63 64 65 65 63 59 56 55 55 55 54 51 50 50 50 50 46 43 42 41 41 42 41 42 43 42 46 55 64 64 62 61 60 59 56 53 50
69 65 64 66 69 71 70 70 71 70 68 65 63 63 63 62 61 60 59 59 57 52 50 51 49 46 46 48 48 48 47 47 56 65 65 63 62 61 59 58 55 54

ECMWFNIL_prec_cthk_060.txt.gz
RH
51 45 41 45 48 50 53 56 54 50 47 47 47 44 40 37 34 30 26 25 24 24 22 22 23 24 23 22 19 15 14 14 14 15 15 14 15 17 19 20 18 16
50 46 44 49 53 54 56 56 54 53 51 49 47 43 39 36 34 32 28 27 26 25 24 23 22 21 20 19 18 17 17 17 16 16 16 15 15 16 19 22 20 16
52 49 47 53 56 57 58 55 55 56 54 51 47 41 39 37 38 36 32 29 27 27 26 26 24 22 22 22 22 21 20 19 19 18 17 17 17 17 18 20 19 15
56 53 52 58 60 60 59 56 56 58 56 52 46 40 40 41 42 42 38 32 31 31 30 30 29 26 25 25 25 25 25 23 21 21 20 20 19 19 19 19 18 17
62 59 61 64 62 60 60 57 57 59 56 52 44 40 41 43 44 45 41 37 35 35 34 34 32 30 30 29 29 30 30 27 25 24 23 23 22 22 20 19 19 17
62 63 69 69 63 59 60 58 58 58 55 50 44 41 42 43 44 44 43 41 40 39 39 38 36 35 35 35 36 39 37 34 34 35 32 29 29 28 28 26 24 21
64 65 71 74 68 62 60 61 61 57 53 49 44 43 43 41 42 44 45 45 45 44 43 41 40 39 40 42 44 47 44 42 44 47 44 39 37 37 37 35 32 30
65 65 70 77 76 69 65 65 64 58 52 48 46 44 42 40 42 46 49 49 47 47 45 43 42 42 45 50 51 49 47 48 51 53 51 48 47 47 46 44 42 40
70 69 70 79 84 77 70 70 69 63 54 49 46 43 40 41 45 48 50 50 50 50 47 45 46 46 48 55 55 51 50 51 53 56 56 56 57 56 53 51 51 50
75 75 72 81 89 81 73 73 73 67 56 48 46 43 41 46 51 50 51 55 55 52 50 49 50 50 52 58 58 55 56 57 56 60 61 61 64 63 61 59 58 59
71 74 74 86 92 83 76 77 75 68 58 50 48 47 46 53 59 56 55 58 56 52 53 54 57 58 58 60 61 60 64 65 64 65 64 64 67 68 68 67 65 66
68 70 75 88 91 84 81 82 76 67 61 58 57 56 54 57 61 59 57 57 55 54 55 56 60 63 61 62 64 65 68 70 71 73 73 73 73 73 73 73 74 73
73 74 78 85 87 82 81 81 75 69 67 66 66 64 59 55 54 56 58 58 58 59 61 62 64 66 66 67 71 70 69 73 76 76 77 77 75 74 76 79 82 83
73 77 80 81 80 78 79 79 78 78 79 76 73 69 65 59 54 54 56 57 59 61 65 68 68 68 70 71 72 72 69 69 71 71 72 72 71 72 75 79 82 85
61 63 68 72 71 73 78 82 84 87 83 79 76 70 63 59 55 53 53 57 58 59 62 64 64 69 78 75 70 70 67 64 67 69 68 68 69 71 72 75 77 77
56 56 60 65 67 70 75 80 83 86 81 76 76 70 63 60 57 54 55 58 60 60 62 61 60 72 85 80 71 69 65 63 66 67 63 63 65 67 69 71 72 71
62 63 63 65 67 70 75 78 78 79 77 74 75 74 71 69 65 60 58 58 60 63 62 58 59 73 85 82 75 72 67 64 65 65 62 59 59 62 65 68 69 69
66 69 67 67 71 72 75 79 78 75 72 71 73 75 76 75 72 68 65 64 65 66 63 60 60 68 76 76 75 74 70 68 69 68 66 62 60 60 62 64 63 60
70 74 75 74 77 76 78 83 83 76 70 69 73 76 76 76 76 73 69 67 67 67 65 64 64 66 69 69 70 72 72 73 72 69 67 66 64 60 58 57 54 50
78 80 79 77 78 78 76 76 72 66 61 62 70 74 72 72 74 72 68 67 67 67 69 71 72 73 74 72 70 73 74 70 67 65 65 65 62 57 55 53 50 48
75 75 73 71 72 72 68 63 60 57 56 57 62 68 69 70 71 70 69 67 67 67 68 72 73 73 73 73 75 78 74 65 63 63 63 62 57 51 49 46 43 46
63 64 63 62 63 63 61 58 56 57 57 56 59 63 67 68 68 66 64 63 63 62 61 63 65 64 64 66 67 68 62 58 61 64 64 63 57 50 46 44 43 46
59 58 57 56 56 57 56 54 54 54 55 56 57 60 62 63 63 62 59 58 59 59 55 53 52 51 53 54 54 52 52 55 60 61 62 62 59 55 54 52 51 50
60 60 59 56 55 55 55 54 52 52 53 54 55 56 59 61 61 61 61 59 59 57 50 45 41 39 41 44 45 45 47 52 56 54 54 54 53 53 54 52 50 48
62 63 64 62 59 58 58 57 57 56 55 56 57 58 60 60 59 59 58 58 59 56 47 41 38 37 37 39 40 41 42 48 54 54 54 54 51 51 54 53 50 49
66 66 66 65 63 61 59 59 59 58 57 58 60 62 62 60 59 58 56 56 58 56 49 44 43 43 43 43 45 46 47 51 57 59 58 57 54 52 54 56 56 55

ECMWFNIL_prec_cthk_063.txt.gz
RH
57 54 51 49 47 44 46 52 54 53 50 47 48 47 43 40 37 32 30 29 30 32 33 34 33 30 24 20 18 18 17 17 17 18 20 22 23 23 23 24 26 26
59 57 55 51 48 49 51 53 54 53 50 48 49 48 47 44 39 34 30 28 29 32 34 34 32 27 22 20 19 18 17 17 16 16 17 18 19 19 19 23 26 26
58 58 58 55 53 56 58 58 57 55 53 53 51 50 51 48 42 37 33 31 31 33 34 33 30 27 25 24 22 21 20 19 18 16 16 16 15 15 16 18 23 25
60 59 59 60 59 61 63 62 61 60 59 57 54 53 53 50 45 41 38 37 37 37 36 34 32 31 30 29 27 26 25 24 22 20 19 17 16 16 16 16 18 22
63 62 63 63 62 63 65 64 63 63 62 61 58 55 54 53 50 46 45 46 46 45 43 40 37 36 35 34 32 31 30 29 28 25 23 22 20 20 19 18 17 18
67 66 67 67 65 66 67 66 67 67 65 63 60 57 56 56 53 51 51 54 53 52 49 46 44 43 42 42 39 37 37 38 37 35 31 29 28 27 26 25 23 21
67 68 70 68 67 68 68 68 69 70 68 66 62 58 57 57 56 53 54 56 58 56 54 53 52 51 50 50 49 49 49 49 48 46 42 40 38 37 35 34 32 30
67 69 70 68 66 66 66 68 71 72 72 70 64 60 58 58 57 55 54 55 57 59 60 58 56 54 55 55 56 57 57 56 54 52 51 49 48 47 46 45 44 41
68 68 69 68 66 65 66 69 74 74 73 70 65 60 60 58 56 54 54 55 58 62 63 59 56 56 60 61 59 59 60 60 59 57 56 57 58 58 57 56 56 52
75 74 74 73 72 73 73 73 77 78 75 71 65 61 60 59 56 55 57 58 62 65 64 60 55 56 62 64 62 63 63 62 61 61 61 63 65 65 64 63 61 60
79 79 80 80 80 79 77 76 79 83 82 77 70 64 61 61 58 57 60 64 67 68 65 61 58 58 62 66 66 67 66 65 66 67 67 68 70 70 70 69 67 66
77 77 77 79 80 79 78 79 82 84 85 84 77 66 62 64 64 61 62 67 68 66 63 62 63 63 64 68 69 68 67 68 70 72 72 72 73 74 73 73 72 70
72 76 76 77 81 83 84 85 84 82 85 86 81 72 65 66 67 62 61 66 67 65 65 65 67 70 70 71 72 70 70 71 71 72 74 73 72 73 72 73 76 75
68 71 73 76 83 88 88 88 86 85 86 85 82 76 69 67 67 63 61 62 63 63 64 64 66 70 72 73 71 70 74 77 74 70 69 69 68 67 68 71 77 80
66 67 68 71 78 82 82 84 86 87 86 83 81 79 75 72 72 70 65 64 63 63 61 61 62 66 69 70 67 67 72 78 75 67 66 66 65 65 67 69 74 80
65 65 66 67 69 72 74 79 84 87 87 83 80 79 77 75 74 73 68 63 61 61 61 60 62 63 65 66 65 64 67 72 73 70 68 66 63 63 66 68 70 73
67 67 68 68 67 68 72 75 78 81 84 83 81 80 77 73 70 68 66 62 60 61 62 62 64 65 63 63 64 66 67 67 69 71 68 64 63 63 63 63 64 67
67 66 67 70 71 72 74 76 77 78 79 78 76 75 72 68 64 63 63 64 64 66 66 65 67 67 66 64 65 68 68 66 65 65 63 61 62 65 65 63 62 64
63 61 62 66 70 72 74 77 80 80 77 72 68 67 66 66 64 62 64 66 67 69 71 70 69 69 67 64 63 64 66 67 66 66 65 64 65 66 66 65 65 64
58 59 60 61 65 69 73 78 81 79 73 67 66 67 67 67 68 69 68 67 67 69 70 69 68 67 65 63 63 64 65 67 68 70 70 69 69 67 65 65 66 64
61 63 65 65 64 68 73 76 77 72 65 63 66 68 67 66 70 74 71 66 65 66 66 65 65 66 67 66 65 64 65 66 67 68 69 66 64 65 66 67 65 61
63 65 68 67 66 69 71 71 70 65 61 61 62 63 64 63 65 68 67 63 62 65 65 65 64 64 64 63 62 61 63 62 62 64 64 58 51 50 54 59 58 55
67 67 67 65 63 64 65 65 65 63 59 56 54 57 60 59 58 61 64 61 59 59 59 59 61 61 62 61 60 59 60 59 58 58 55 49 42 39 41 46 50 50
71 71 70 67 65 65 63 62 62 60 57 55 54 56 58 56 55 57 59 59 56 54 52 52 55 58 58 57 57 57 56 56 55 52 48 45 42 41 41 42 44 45
67 69 71 71 70 71 70 68 65 63 62 61 60 58 58 57 55 53 53 55 55 54 51 48 48 49 49 49 50 50 50 53 54 52 50 49 48 46 44 45 47 48
68 68 69 69 70 72 72 72 71 68 66 65 63 62 59 57 56 56 55 56 55 53 51 48 45 43 41 41 41 42 47 53 53 51 52 53 52 50 48 48 50 52

ECMWFNIL_prec_cthk_069.txt.gz
RH
64 64 59 59 61 61 64 64 62 62 60 59 58 59 59 60 58 54 52 48 43 39 33 26 26 27 28 30 32 35 36 36 34 31 29 28 29 31 31 31 32 32
61 60 58 59 62 63 63 61 60 60 57 55 55 58 61 63 61 56 53 50 46 41 32 25 24 24 24 26 29 33 35 36 33 28 27 27 27 27 27 28 29 29
59 57 56 56 58 60 60 58 58 59 58 55 55 59 59 60 60 57 55 52 48 41 32 27 26 24 23 23 24 28 31 33 32 29 27 26 27 26 26 28 28 27
58 57 56 55 58 60 59 57 58 62 61 56 56 58 57 56 59 59 56 53 48 41 35 31 29 26 24 23 23 25 26 27 28 28 28 26 26 26 27 29 29 26
59 59 58 57 59 61 57 56 59 63 60 55 54 56 56 56 59 60 56 52 48 43 38 35 32 29 27 25 24 25 25 26 26 27 29 27 27 26 26 28 28 26
62 63 60 57 58 57 56 57 60 60 56 52 52 54 55 57 58 58 56 52 49 46 43 40 37 35 32 30 30 29 28 27 26 27 28 28 29 28 26 26 26 26
65 66 62 59 58 56 56 57 59 58 53 50 51 53 55 56 56 57 56 54 52 49 47 45 43 42 40 38 37 36 34 33 30 29 29 28 30 30 28 26 26 26
69 67 64 62 60 57 58 60 61 59 55 53 53 53 54 56 57 57 57 58 56 53 52 51 50 50 47 45 44 43 42 40 37 35 33 31 30 30 31 30 28 27
73 68 66 64 61 60 63 64 63 61 59 58 54 51 51 52 55 58 59 60 60 58 58 57 57 56 55 53 53 52 50 48 46 44 41 38 35 33 32 32 32 32
74 72 71 68 67 66 67 66 64 62 62 60 55 50 49 50 54 59 61 63 64 64 63 64 65 64 63 62 61 59 58 56 54 52 48 45 43 40 36 34 35 37
76 78 76 72 72 72 69 68 66 62 62 64 60 53 51 53 56 60 63 64 67 68 67 68 70 71 70 69 66 64 62 59 56 54 52 51 50 49 46 41 39 40
81 82 80 76 75 73 70 70 69 66 66 68 63 53 50 54 59 61 64 68 70 68 67 68 70 70 71 71 69 66 63 59 56 55 54 53 52 54 54 51 46 44
85 84 83 80 77 75 75 75 73 70 68 66 62 56 55 59 62 63 66 69 69 67 67 68 67 66 69 71 70 66 62 60 59 58 57 56 56 58 60 59 56 54
83 84 85 85 82 80 78 74 71 69 66 64 63 61 60 62 64 65 66 67 68 69 70 70 68 66 68 70 69 67 65 63 63 63 62 62 63 64 65 65 65 64
82 84 87 88 83 78 73 69 67 69 67 63 61 60 59 61 64 66 68 71 72 73 73 71 70 69 68 67 68 70 72 71 67 65 65 67 69 68 68 70 70 70
79 78 81 80 76 74 72 69 71 75 72 64 59 59 61 64 67 67 70 74 76 76 72 69 69 69 67 65 66 68 70 71 68 64 65 69 71 69 68 68 68 69
69 68 72 76 78 80 79 76 76 79 76 66 57 57 62 64 64 65 68 73 76 75 71 64 63 64 63 62 61 61 62 65 66 65 66 69 71 69 66 63 62 63
63 65 69 74 78 79 79 78 78 76 73 65 58 60 64 62 60 62 67 72 74 72 67 62 59 60 60 56 55 56 57 61 66 68 68 71 71 71 69 67 63 62
60 64 68 71 71 71 71 74 76 73 69 65 64 65 66 64 64 67 70 70 69 66 66 65 63 61 59 55 53 54 55 58 65 68 69 70 71 73 74 71 66 64
60 62 66 67 66 65 66 67 69 67 65 65 65 64 63 65 67 68 67 66 66 67 70 72 69 65 61 57 55 54 54 56 62 65 66 66 65 66 66 65 63 62
59 61 63 64 64 64 66 67 66 65 65 66 66 64 61 62 62 62 62 66 71 73 73 74 73 70 66 62 60 58 57 59 62 63 65 64 62 60 59 60 61 63
59 60 61 62 63 63 66 68 68 67 67 67 67 67 65 64 66 69 71 75 78 76 73 72 72 71 68 67 64 63 62 62 63 64 64 64 63 62 62 63 64 65
61 61 60 60 61 61 63 65 67 68 70 70 70 70 69 67 70 76 81 83 80 76 74 75 75 74 73 70 66 65 65 67 68 69 70 70 68 67 69 69 69 69
68 68 67 66 66 66 65 66 67 67 68 69 71 72 71 69 67 70 75 78 76 75 79 83 84 84 83 79 75 72 73 76 76 75 75 74 73 72 71 71 71 72
79 79 79 77 76 74 72 70 70 70 68 68 70 73 72 68 64 64 66 68 70 76 81 85 88 88 85 82 81 78 78 81 81 79 75 72 71 70 70 72 77 78
85 84 83 82 80 79 76 74 73 74 73 72 71 72 72 68 64 63 64 66 70 76 80 81 84 86 85 83 81 78 77 76 73 71 68 67 68 68 68 72 79 78

ECMWFNIL_prec_cthk_072.txt.gz
RH
66 68 64 57 51 49 51 53 54 58 59 59 58 58 57 57 55 53 52 51 48 46 41 33 33 35 34 33 33 33 34 35 35 34 33 33 34 37 40 42 43 44
63 67 65 59 54 51 53 56 58 61 62 60 59 55 52 53 54 53 54 53 50 47 41 33 32 33 33 34 35 35 35 35 35 34 32 30 31 33 35 37 39 39
62 66 63 59 57 56 58 62 63 65 64 60 55 51 48 50 53 55 58 57 52 47 40 35 32 30 30 32 34 36 36 35 35 33 31 30 29 28 28 31 33 33
61 63 61 58 58 59 63 65 65 65 63 58 54 51 50 51 55 59 61 58 53 48 42 37 35 31 29 29 30 33 36 37 36 33 31 30 28 26 27 29 29 28
62 61 57 55 56 59 62 62 60 59 59 58 56 55 53 53 57 60 60 58 55 48 42 40 38 35 33 31 30 31 32 35 36 33 32 31 29 28 29 30 28 25
66 62 56 53 54 57 60 60 57 55 58 59 57 56 54 52 55 58 58 58 55 48 42 41 41 39 37 35 34 32 31 31 33 34 34 33 32 31 32 32 30 26
70 67 60 55 54 56 59 59 56 56 58 58 55 53 52 50 51 55 58 59 56 49 45 44 43 43 42 41 40 38 34 32 32 34 36 36 36 35 35 34 32 28
72 71 66 61 57 56 58 57 55 56 57 54 51 50 49 49 50 53 57 58 54 50 48 47 47 47 48 48 47 45 41 38 36 37 39 40 41 41 39 36 34 30
75 74 70 65 60 56 57 58 57 58 57 53 51 51 50 49 48 50 53 53 52 51 51 51 51 51 52 52 52 53 51 48 45 44 44 45 46 47 45 41 38 35
78 78 72 66 62 57 56 58 59 59 59 55 52 50 48 47 47 50 52 52 52 53 54 55 54 54 55 55 57 59 59 58 55 52 50 48 48 49 49 46 44 41
79 79 75 70 65 59 56 59 60 59 59 57 53 49 47 49 51 51 51 51 50 53 56 58 58 59 60 60 63 65 66 66 64 61 58 54 51 49 49 48 46 45
81 80 78 75 69 61 59 61 60 59 60 60 56 52 52 53 51 48 49 50 51 55 58 61 63 64 65 65 67 69 70 70 70 68 64 61 57 55 53 51 50 47
83 82 82 79 73 67 66 66 63 61 63 64 63 61 57 53 51 51 53 56 57 59 60 62 64 66 68 69 70 72 71 70 72 71 68 65 62 61 60 60 59 55
86 85 84 83 79 75 73 72 69 68 69 70 70 66 58 53 52 54 56 58 59 62 64 63 63 66 68 68 68 69 69 69 71 72 71 70 67 65 64 64 64 63
88 89 90 89 85 81 79 77 76 77 77 73 71 66 58 53 52 54 56 58 58 61 63 63 64 66 67 65 64 65 67 70 74 76 75 74 71 69 67 66 66 67
83 85 88 89 88 87 84 80 79 79 77 73 72 69 60 53 51 55 59 61 60 61 63 64 65 67 66 65 66 66 68 71 75 77 77 76 73 70 69 69 69 68
78 78 81 84 85 88 88 84 81 77 74 74 76 72 62 54 52 53 56 60 62 63 64 65 66 67 67 67 67 67 68 69 71 73 74 74 73 72 71 72 71 69
75 77 81 83 82 83 84 82 79 74 72 75 77 71 60 52 49 48 50 56 61 64 66 67 66 65 65 65 64 64 64 64 65 67 67 66 67 70 73 73 73 73
70 74 78 80 78 77 76 76 78 79 78 78 76 70 60 52 47 46 48 53 58 61 65 66 64 63 65 65 61 59 59 60 60 61 60 59 60 65 71 72 73 76
65 68 70 71 72 72 71 73 78 81 80 79 77 73 66 59 53 48 50 54 55 55 56 58 61 64 65 64 61 59 59 59 57 56 56 56 56 60 66 70 72 73
61 63 63 64 66 67 68 70 72 73 72 72 72 70 68 65 59 55 56 58 57 54 53 55 60 64 63 62 61 62 61 61 59 56 54 54 55 58 61 64 65 65
60 60 60 60 62 63 64 66 68 68 67 66 66 66 66 66 64 62 62 62 61 60 60 60 61 60 60 62 63 64 64 63 62 59 57 58 59 60 60 60 60 60
62 61 60 59 60 59 60 61 63 65 66 66 65 64 63 64 65 65 64 62 62 62 63 64 64 63 65 67 68 69 70 70 67 64 62 63 65 65 63 62 62 61
64 63 62 62 61 62 62 61 60 61 62 63 63 63 63 64 66 68 67 66 65 63 63 64 66 69 71 72 72 74 75 75 74 71 68 67 66 65 64 65 65 65
68 68 67 66 65 66 66 65 63 62 61 62 64 65 65 65 66 68 71 72 71 69 67 66 67 69 69 69 71 73 76 77 77 76 74 71 68 67 68 68 70 71
71 73 74 74 73 72 71 71 71 70 70 70 70 71 71 70 70 71 73 75 73 70 68 68 70 71 69 67 67 70 75 79 78 75 75 75 74 73 72 72 72 73

ECMWFNIL_prec_cthk_075.txt.gz
RH
78 79 74 66 61 59 58 57 56 55 53 51 52 52 50 49 51 52 52 51 50 47 41 39 40 39 36 33 31 32 34 34 34 33 33 34 35 37 39 42 44 46
75 72 68 65 62 59 58 58 56 56 56 56 57 58 55 53 53 56 57 56 54 50 41 39 42 42 38 35 33 33 34 34 35 32 30 30 32 33 36 41 44 45
69 66 64 64 61 57 57 59 59 59 61 60 61 60 56 53 54 58 60 57 54 49 42 40 42 42 40 38 35 35 34 35 35 33 31 31 30 29 31 36 40 40
64 63 63 62 59 56 58 60 61 63 63 61 61 58 54 53 56 59 59 57 54 50 44 41 39 39 39 39 38 38 36 35 34 32 31 29 28 27 28 31 34 34
62 63 63 58 55 56 59 62 62 64 64 63 61 57 54 56 58 59 58 58 56 51 44 41 39 38 38 38 39 40 39 37 35 32 31 28 28 31 31 30 31 31
65 65 65 57 52 56 60 62 62 63 64 63 59 55 53 56 59 59 58 57 55 49 44 43 41 39 38 39 39 40 40 40 37 34 32 30 31 34 33 31 30 30
68 67 67 61 54 55 58 59 60 61 62 59 55 53 53 56 60 60 58 55 51 48 47 45 43 41 40 40 41 40 40 41 40 39 36 33 33 35 34 32 31 30
70 69 68 64 59 57 57 58 57 59 60 56 53 54 54 55 58 59 57 54 51 50 50 49 46 44 43 43 44 44 43 43 42 42 41 38 37 37 35 34 32 30
73 72 70 66 63 63 61 59 56 57 58 55 52 54 53 52 54 56 56 55 53 52 51 50 48 46 47 48 49 49 48 47 46 47 48 47 45 42 40 38 36 34
74 73 73 71 69 67 65 61 59 58 57 55 52 52 51 50 52 55 55 53 51 49 48 47 45 46 48 51 53 54 54 54 53 53 54 55 54 52 48 45 43 40
73 73 75 76 73 70 65 62 62 62 60 58 54 52 53 52 51 53 51 49 48 47 47 46 45 45 48 53 56 59 61 61 60 59 58 58 59 59 57 54 52 49
73 74 77 78 76 71 65 62 62 63 62 59 57 55 55 52 49 49 50 50 50 49 48 47 46 47 50 54 58 63 66 68 68 66 63 61 61 61 61 59 58 56
77 77 78 81 79 73 67 63 62 62 61 61 59 57 55 51 49 50 53 54 52 50 49 50 52 55 56 58 61 65 69 71 72 70 68 67 67 67 66 65 64 62
81 79 80 85 84 77 71 67 64 62 62 63 63 61 56 51 50 53 56 56 54 53 54 55 59 62 63 65 66 67 69 72 72 71 69 70 72 72 72 71 70 69
83 83 87 91 89 82 76 70 66 65 64 65 66 65 59 54 55 58 56 55 55 55 55 58 60 63 66 69 69 69 71 73 72 69 68 71 75 76 75 73 72 71
84 88 91 91 89 87 82 75 70 68 67 67 68 69 67 62 59 57 53 52 55 56 56 58 61 63 66 69 70 71 72 72 71 67 68 75 80 79 77 75 73 70
81 84 86 86 88 91 89 84 79 74 72 71 72 74 74 67 59 53 51 52 55 57 59 61 63 65 67 70 73 75 75 74 72 69 69 75 80 78 75 74 73 70
80 80 81 82 83 87 89 88 85 80 78 77 77 76 75 69 63 58 55 54 55 59 62 64 66 68 69 73 75 77 76 75 74 73 71 72 73 72 69 70 72 72
80 78 78 77 77 80 85 88 88 86 83 82 82 80 77 74 72 68 61 55 54 58 60 62 65 67 69 72 74 75 74 72 73 74 72 68 68 67 65 65 68 69
75 74 74 75 75 78 84 89 90 89 88 86 84 82 80 77 76 73 65 56 54 56 58 60 62 63 65 68 71 73 72 70 71 74 72 66 63 62 61 60 60 61
67 69 70 73 76 78 81 84 84 84 84 84 83 81 79 78 78 75 69 60 55 55 56 56 57 58 58 61 64 68 70 70 72 74 72 67 62 60 60 59 58 57
65 66 68 71 73 74 74 76 77 78 77 78 80 82 81 78 76 75 72 67 61 57 55 53 52 53 53 53 56 60 64 69 73 74 70 66 64 62 60 59 58 57
68 67 67 69 70 70 70 71 71 71 72 73 77 80 79 75 72 71 70 69 65 62 59 55 54 55 56 57 58 60 62 68 73 73 70 69 67 65 63 61 59 58
72 70 69 69 68 67 67 67 67 68 69 70 72 74 74 71 69 67 66 66 66 67 66 65 65 65 65 66 68 69 70 72 74 74 74 74 73 72 71 68 64 61
70 69 69 68 68 67 66 64 64 64 66 67 68 68 68 67 67 67 66 66 67 68 69 69 69 69 70 71 73 73 75 76 77 77 78 79 79 78 78 77 75 73
67 66 66 66 67 67 67 67 66 65 65 66 67 66 66 66 67 67 68 68 67 67 69 72 74 74 74 76 77 77 77 76 76 76 77 77 78 78 78 78 79 79

ECMWFNIL_prec_cthk_078.txt.gz
RH
80 80 84 83 78 77 73 61 51 50 54 59 61 61 61 60 56 56 55 49 45 42 40 39 39 39 39 40 43 44 44 44 44 45 42 37 37 38 38 44 49 54
79 80 82 79 76 75 69 58 52 55 61 65 65 63 61 60 57 56 53 48 46 43 40 42 42 42 42 39 38 39 39 38 36 39 41 39 38 37 38 42 46 52
75 77 75 70 70 73 68 60 59 63 65 65 64 61 59 58 56 54 51 50 49 43 40 44 45 43 42 37 37 40 41 39 35 37 41 42 42 38 37 42 47 51
73 75 71 65 64 68 68 65 65 65 64 63 62 59 59 57 56 55 54 53 50 44 42 46 45 43 41 39 40 42 42 41 37 36 37 37 39 38 36 40 45 48
72 74 69 64 60 59 62 66 66 65 65 64 61 59 60 59 59 60 58 55 52 47 43 42 42 42 42 42 43 43 43 42 39 37 35 34 34 34 34 36 39 41
68 68 65 62 59 55 56 62 64 65 65 62 58 58 61 62 64 63 62 59 54 48 44 41 40 41 44 45 44 44 44 43 40 38 37 37 34 32 34 39 39 39
64 66 64 61 59 55 53 56 61 65 66 62 59 59 63 66 67 66 66 64 57 49 45 42 41 40 43 47 47 46 46 45 44 42 41 42 40 37 39 43 43 42
63 66 67 65 60 55 53 55 60 64 66 62 59 61 66 70 69 68 69 65 57 51 47 46 46 43 44 48 47 44 46 47 47 45 44 45 45 45 44 43 42 42
66 65 68 67 63 57 54 55 57 60 61 59 59 63 67 70 69 68 69 64 56 51 50 52 52 46 45 48 45 43 45 48 49 49 49 48 47 47 46 44 40 37
70 69 69 69 67 62 57 55 55 56 57 57 59 63 65 67 67 67 68 62 53 50 51 53 52 48 48 48 46 46 47 48 51 53 54 53 51 49 47 45 42 39
75 74 73 72 71 68 63 59 57 58 58 57 60 62 62 63 65 65 64 58 53 53 53 54 52 50 50 48 46 47 48 50 54 57 58 59 58 55 53 51 48 45
81 80 78 74 72 71 68 64 62 63 63 59 59 61 59 60 63 64 62 59 57 57 56 55 53 51 51 50 48 49 51 53 56 60 62 62 63 62 60 59 57 53
83 83 80 77 75 73 72 68 66 68 67 63 62 62 59 60 63 64 64 62 61 60 58 55 54 53 53 53 54 55 55 56 58 62 64 63 64 66 65 64 64 61
86 85 82 81 81 78 76 73 70 69 69 67 67 66 64 63 64 65 65 65 63 61 60 57 56 57 56 56 60 61 59 58 60 62 64 63 64 67 68 68 69 68
89 87 85 85 85 83 81 79 75 71 67 66 69 71 70 68 66 66 66 66 65 63 60 59 61 61 59 60 63 64 63 63 63 65 66 66 65 67 70 72 74 73
90 89 88 89 89 87 86 84 82 75 66 64 69 73 73 71 69 68 67 66 65 63 60 59 61 60 59 61 63 63 64 65 66 68 70 69 69 70 72 74 76 76
88 89 89 90 90 90 89 88 87 82 73 69 71 73 72 73 73 71 67 65 65 65 63 61 61 61 62 63 64 65 67 68 68 68 69 71 73 74 74 75 77 77
86 87 89 90 90 90 91 92 90 86 80 77 75 72 69 71 73 73 70 67 68 71 67 61 60 63 65 66 65 66 68 69 69 69 70 72 74 75 75 76 76 75
86 85 86 87 87 89 91 92 92 88 81 76 74 72 70 70 71 71 70 70 72 73 67 60 59 62 65 66 66 67 68 69 71 72 72 72 73 74 76 77 77 74
87 86 85 84 84 86 87 87 89 87 81 78 76 75 75 74 72 72 72 71 71 69 65 61 61 61 62 62 63 63 64 66 69 70 68 68 69 71 75 77 76 72
86 85 84 83 82 81 80 80 81 81 80 81 82 80 79 80 79 79 78 73 69 67 66 63 61 59 58 59 59 59 58 60 62 63 63 63 64 65 71 75 74 71
82 83 82 81 80 78 77 78 80 81 82 84 85 84 85 86 86 85 83 79 75 74 72 65 58 56 55 55 56 55 54 54 54 54 55 58 61 63 66 70 71 70
77 78 78 78 78 78 78 80 81 82 83 84 84 86 88 89 88 86 85 84 83 81 77 67 60 57 55 52 51 50 49 48 47 47 49 52 56 60 65 68 69 70
72 72 73 74 76 78 79 80 82 83 86 86 84 83 85 85 85 85 85 87 86 83 79 72 67 63 58 54 51 48 47 46 46 48 50 52 56 61 65 68 69 68
74 73 73 73 74 75 76 77 79 82 85 84 81 80 80 81 82 84 85 85 83 80 78 74 69 66 63 60 58 56 56 57 58 61 63 66 69 70 71 71 70 69
76 75 74 74 73 72 71 71 72 74 75 75 75 75 75 76 77 79 80 78 76 75 74 73 71 70 70 68 68 68 68 69 71 73 73 74 77 77 76 75 75 75

ECMWFNIL_prec_cthk_084.txt.gz
RH
59 62 63 63 64 63 62 66 68 69 70 70 68 66 62 61 61 59 58 57 56 58 57 52 48 47 45 44 47 49 48 51 53 51 51 53 50 47 48 50 50 49
59 62 61 61 65 67 67 70 73 72 72 72 69 64 62 62 61 58 54 53 53 53 52 47 42 43 43 41 46 50 51 54 56 54 55 55 52 52 52 51 50 49
61 62 61 61 64 68 71 74 77 76 75 73 68 63 62 62 60 55 52 52 52 49 48 47 43 44 44 42 46 50 51 55 55 54 55 53 51 54 55 55 53 50
63 62 61 62 64 68 72 76 79 79 75 73 68 62 59 59 57 54 54 54 50 47 48 48 47 46 45 42 44 45 46 48 47 47 51 51 49 52 54 56 56 51
62 62 63 65 68 70 72 76 81 80 74 71 67 60 55 54 56 56 55 53 50 48 48 49 49 47 44 42 43 43 43 43 41 41 46 48 48 51 53 55 55 53
62 61 64 66 69 70 72 78 80 74 68 65 63 59 55 57 60 60 55 53 52 51 50 51 51 47 45 45 45 45 44 43 40 39 41 44 46 50 53 54 55 55
65 62 63 65 68 70 71 74 71 64 62 62 60 60 59 62 65 63 59 57 55 56 56 54 51 49 49 48 46 46 44 40 37 37 40 42 43 47 50 52 54 55
66 63 63 65 68 71 70 67 63 62 61 58 59 62 62 64 66 63 61 61 59 59 59 57 54 53 52 50 48 45 42 38 37 39 41 41 42 44 46 50 54 56
69 64 64 67 67 68 67 62 63 66 63 59 61 64 63 65 66 64 62 62 62 61 60 59 59 57 54 52 49 44 41 41 41 43 44 44 44 46 47 50 53 55
72 68 69 69 65 64 66 62 61 64 64 61 62 63 62 63 64 64 63 62 61 61 59 60 59 58 57 54 47 43 44 45 46 47 48 48 47 48 49 50 51 52
75 74 74 71 65 64 65 62 60 62 62 60 60 62 63 63 62 63 63 60 59 58 58 59 59 59 58 52 46 46 47 47 48 49 49 49 49 48 48 48 48 48
75 76 75 72 68 67 66 64 62 61 61 60 59 60 62 61 61 62 60 58 58 58 58 59 59 58 55 50 48 49 48 48 49 49 49 50 50 49 48 47 46 46
74 74 74 72 70 69 68 67 64 61 61 61 60 60 60 59 59 57 56 55 55 55 55 55 55 54 53 51 50 51 50 50 51 52 53 52 50 50 50 50 50 50
74 73 74 74 72 70 69 69 66 62 62 63 62 62 62 61 59 55 52 51 52 52 50 50 51 52 52 52 52 52 52 52 54 55 54 52 51 52 53 53 54 55
75 74 74 76 76 74 72 72 70 66 64 63 64 64 63 61 60 56 52 51 51 50 50 49 50 51 53 53 53 53 54 55 57 57 55 55 57 59 58 58 59 59
77 75 75 77 79 77 75 74 74 71 67 64 64 64 62 61 60 56 54 53 53 53 52 52 53 53 54 56 56 57 58 60 61 59 59 61 64 65 64 65 65 65
79 78 78 79 80 79 78 78 76 75 72 68 67 65 62 61 62 59 57 58 59 58 57 56 57 59 59 60 61 62 64 65 65 63 63 65 67 68 69 71 70 71
87 84 84 84 83 81 82 82 80 78 77 74 71 69 65 62 61 60 60 60 61 62 63 63 64 66 65 63 64 67 68 69 68 66 67 68 69 70 73 75 74 75
91 87 85 88 88 86 85 86 84 81 80 78 75 74 72 67 63 62 61 61 61 63 66 69 71 72 71 68 67 70 72 72 70 69 70 69 68 71 76 80 82 83
90 90 89 91 93 92 91 89 87 85 84 82 80 78 75 71 69 67 66 64 64 66 70 74 75 74 72 72 71 72 75 74 71 71 72 69 67 71 77 80 84 86
86 88 89 90 92 95 96 91 88 88 89 87 86 84 82 79 77 74 72 71 71 73 76 80 78 75 72 72 72 73 75 74 72 72 71 69 68 70 72 73 73 73
88 88 87 86 87 92 95 92 89 90 92 90 89 89 87 86 85 82 77 75 75 77 80 83 84 81 77 74 74 74 75 74 73 71 68 67 68 67 65 62 62 63
93 91 91 90 89 91 93 92 90 91 90 87 85 85 84 82 82 82 79 77 75 76 77 79 81 82 80 78 78 79 78 77 76 73 70 68 68 67 63 60 60 63
95 94 94 94 93 92 92 90 88 87 85 80 80 82 80 77 75 76 75 75 75 73 70 70 73 78 79 79 80 81 79 76 76 76 75 71 68 67 66 63 62 63
95 95 94 93 93 92 88 87 86 85 81 79 81 83 81 77 76 75 75 76 75 71 68 68 71 76 79 80 81 81 79 78 78 79 77 73 69 67 66 64 64 66
90 92 92 91 90 88 85 84 84 83 81 80 82 84 82 79 80 80 81 82 79 76 75 75 76 78 81 83 83 82 83 83 82 79 77 75 72 71 71 70 71 74

ECMWFNIL_prec_cthk_087.txt.gz
RH
76 74 73 71 72 73 71 71 71 69 69 70 70 73 75 73 70 69 65 60 59 60 60 61 61 61 60 56 52 52 52 52 51 51 49 49 51 54 53 53 56 59
81 78 75 71 72 71 69 71 73 70 72 73 73 74 75 71 67 65 63 60 58 57 59 60 59 58 57 54 50 49 49 52 55 54 55 54 55 57 56 55 58 58
79 79 75 70 69 68 67 69 71 72 77 79 76 76 74 68 64 63 62 59 55 53 55 55 53 51 53 53 50 49 50 55 57 56 57 56 56 58 58 58 60 59
73 75 73 69 67 67 66 69 72 76 80 80 78 76 71 65 64 64 61 57 52 50 51 51 49 49 52 53 50 50 53 55 56 56 56 57 57 58 58 59 60 58
73 72 70 68 67 67 69 73 77 80 81 80 79 77 70 67 65 61 57 55 53 52 54 54 52 52 54 52 50 51 52 50 50 52 54 55 56 57 58 59 59 58
78 74 70 68 67 70 74 79 81 82 81 80 82 78 71 67 63 58 56 56 55 56 58 58 56 55 54 51 49 48 48 46 46 48 48 51 55 57 59 59 58 59
78 75 72 69 69 72 77 81 82 83 84 82 81 75 66 62 60 58 58 55 53 56 59 59 57 56 55 51 48 46 45 45 47 47 47 51 56 59 61 61 60 59
75 75 73 71 70 71 75 78 80 85 85 80 75 67 59 59 59 59 57 52 51 57 60 59 58 57 56 52 49 48 47 47 49 49 49 50 53 58 61 63 62 60
76 76 74 71 69 68 73 78 80 83 80 71 64 60 58 59 58 57 57 56 56 58 59 59 59 57 56 53 51 50 49 49 51 50 49 49 52 55 58 63 64 62
79 78 75 72 69 67 72 77 78 75 69 61 57 58 59 58 56 56 59 61 60 59 60 61 62 60 58 56 53 52 52 53 54 51 49 50 53 54 57 62 63 63
81 80 76 74 72 71 74 75 71 67 62 57 55 57 59 57 55 57 60 61 59 60 63 65 64 64 62 58 55 54 55 55 54 52 51 52 52 53 56 58 60 61
82 80 79 78 76 76 77 73 68 66 62 58 57 58 58 56 56 57 58 58 58 62 67 67 66 67 63 59 58 57 57 56 54 53 53 53 52 52 53 54 56 57
84 81 80 81 80 81 81 75 71 70 64 60 61 62 60 57 56 56 55 55 57 62 66 66 66 66 63 61 61 59 58 58 57 56 55 54 53 52 53 54 54 53
87 83 82 82 80 80 82 77 73 73 68 65 66 65 61 59 56 54 52 54 57 61 64 64 63 63 62 62 62 60 60 60 59 57 55 54 54 54 55 56 56 55
90 86 84 83 78 77 79 75 71 71 71 69 68 65 61 59 56 53 51 53 56 58 59 60 60 60 60 59 59 59 60 61 60 59 58 57 56 57 58 59 59 61
92 88 85 83 78 76 79 77 73 71 70 69 68 66 64 60 56 54 53 54 56 57 56 56 57 59 58 56 57 58 60 62 61 60 62 63 62 61 63 64 64 65
94 89 86 85 83 80 79 77 75 73 71 69 67 67 66 61 56 55 55 55 56 56 56 57 58 60 60 58 58 59 62 64 65 65 66 69 69 67 66 68 70 71
93 89 87 88 87 85 81 78 78 77 74 70 66 65 66 62 58 57 57 58 58 58 59 63 65 66 67 65 64 65 67 69 70 71 72 73 74 73 70 72 76 77
93 89 87 89 89 88 86 82 81 81 78 73 68 66 65 62 58 58 59 60 61 62 63 65 68 70 71 71 72 73 74 73 74 75 76 76 77 76 73 72 76 77
94 90 89 91 91 91 89 88 86 84 82 78 74 70 69 65 58 56 59 60 62 65 65 66 69 71 73 74 77 78 79 78 77 77 79 79 80 79 76 74 72 71
96 94 93 94 94 93 92 90 89 88 86 84 81 76 74 72 65 60 60 61 62 65 65 66 69 71 73 76 79 81 82 82 81 80 80 81 81 80 78 76 73 69
94 96 96 96 96 94 93 92 91 91 90 88 86 81 79 78 73 67 65 64 64 65 66 68 70 71 73 77 80 82 82 82 82 82 81 80 81 80 79 76 72 68
93 94 95 97 98 96 95 93 90 90 90 88 86 85 83 83 80 77 76 75 73 72 70 69 70 71 73 74 76 78 79 79 81 81 80 80 81 83 83 78 72 69
91 91 91 93 96 98 98 94 90 91 91 89 88 89 88 87 87 87 87 87 85 81 76 72 70 71 72 73 73 75 77 78 79 80 81 82 83 84 85 82 77 73
89 91 91 92 94 96 98 96 94 94 94 91 90 90 88 87 88 87 87 89 88 85 80 75 71 68 68 70 71 73 77 80 81 82 85 87 86 85 85 84 80 77
92 94 95 95 95 95 95 96 95 94 92 89 88 86 83 82 82 81 81 82 82 81 78 76 75 73 72 72 73 76 80 84 84 85 88 90 89 88 87 85 82 80

ECMWFNIL_prec_cthk_093.txt.gz
RH
67 71 68 66 67 72 74 76 77 74 72 72 69 67 67 68 70 71 72 71 70 70 69 69 69 70 69 66 62 60 60 61 59 57 56 56 54 51 49 49 49 49
65 65 66 65 64 70 74 75 77 75 72 71 70 67 65 66 69 72 73 73 70 71 72 70 71 73 69 64 62 60 58 58 57 56 57 57 54 51 50 50 48 48
61 59 62 63 62 65 71 75 77 76 73 70 69 68 65 67 71 73 75 74 73 74 73 72 74 72 66 60 61 60 58 57 57 57 58 57 54 51 51 51 49 48
58 57 58 60 61 64 69 74 75 75 74 71 68 69 69 70 71 72 73 74 75 75 74 73 73 68 62 59 59 58 57 59 59 58 58 56 52 51 51 52 52 52
61 59 58 59 61 64 68 73 74 74 73 71 70 71 71 71 70 70 71 73 77 76 73 71 68 61 58 58 58 57 57 58 58 57 55 53 51 52 52 53 54 55
64 60 59 61 63 65 69 73 74 75 75 73 73 73 71 69 70 70 70 74 79 77 70 67 63 59 58 58 58 57 56 57 58 55 54 53 53 53 53 54 55 57
67 63 62 63 64 65 68 71 74 78 79 77 78 77 74 73 74 74 74 77 79 74 68 64 62 59 58 57 55 55 55 58 59 56 55 55 55 55 55 55 56 56
67 64 64 65 66 67 68 72 78 81 80 79 80 81 80 80 80 78 77 78 74 70 67 64 61 58 56 53 52 54 56 58 58 56 55 55 55 56 56 56 57 57
75 74 71 68 68 69 72 79 84 81 79 79 80 82 83 86 85 81 78 74 71 69 67 61 57 55 53 53 54 55 56 56 55 53 52 53 55 57 58 59 60 61
80 82 78 73 73 74 78 85 84 79 79 82 83 85 86 87 86 83 80 74 68 65 61 55 54 54 54 55 56 55 54 52 50 48 48 51 55 59 61 62 63 63
79 78 75 75 80 84 86 87 84 80 83 86 86 87 88 87 85 83 79 72 64 59 57 56 56 56 57 56 54 54 54 52 50 48 48 50 55 60 63 63 65 65
77 75 75 78 83 89 90 86 85 84 85 87 87 87 89 88 83 79 74 67 62 59 59 59 58 58 58 55 53 54 54 55 55 54 52 53 57 61 63 65 68 68
78 76 78 80 83 89 91 87 89 89 85 85 87 87 89 87 81 77 70 61 59 60 60 60 59 59 58 56 55 55 56 58 59 57 56 56 58 61 63 65 68 68
82 80 81 82 84 90 91 90 93 92 86 85 88 88 87 84 76 69 62 55 56 58 59 61 62 62 62 61 61 61 61 61 60 59 58 57 57 60 62 63 65 65
83 83 85 85 86 91 93 91 92 91 87 88 89 87 84 77 65 57 54 54 55 56 58 63 66 66 66 66 67 67 66 63 60 59 59 58 59 62 63 63 63 62
85 87 90 89 89 93 94 93 92 91 89 88 87 84 79 68 56 52 53 54 55 57 60 64 66 67 67 68 69 69 68 65 64 63 61 61 62 64 66 65 62 60
90 90 91 92 93 94 95 94 92 91 89 88 87 83 74 63 57 54 53 52 53 57 59 62 64 66 66 68 69 69 68 67 67 66 64 63 64 65 66 64 62 61
94 94 92 93 94 94 94 94 92 91 90 89 86 81 72 64 60 56 53 52 52 55 58 62 65 66 66 67 67 67 67 66 66 66 64 63 63 63 63 63 62 62
96 96 95 95 95 94 95 94 93 92 90 86 82 77 72 67 62 57 55 54 53 54 58 62 65 65 66 66 65 65 65 63 63 63 62 61 62 62 62 64 64 65
97 97 96 97 97 96 94 93 93 92 86 81 78 74 70 67 63 60 58 56 54 55 58 60 62 64 66 66 65 64 64 63 62 64 65 66 66 66 65 67 69 72
94 96 97 97 97 97 94 93 94 91 84 80 78 74 69 65 62 60 60 58 56 55 57 59 61 64 67 68 67 66 65 64 65 67 70 72 73 73 73 75 77 79
91 94 96 96 96 95 95 95 94 91 86 83 80 76 72 68 64 62 62 60 58 56 56 58 61 63 66 67 67 67 66 66 69 71 73 74 76 78 80 82 83 82
92 92 94 95 94 94 93 93 93 91 87 85 81 77 74 71 67 65 65 63 61 60 59 59 61 63 65 66 67 68 68 69 72 75 78 80 81 81 81 82 82 82
93 94 95 95 94 95 94 92 92 90 87 86 84 80 75 71 69 67 67 67 67 67 67 66 66 67 68 69 70 72 72 73 76 79 82 85 86 84 83 84 83 83
85 91 95 95 95 95 95 94 94 93 90 89 88 84 78 74 72 71 72 73 73 75 77 76 73 73 74 74 76 78 80 81 82 85 86 88 88 86 85 84 84 83
78 83 88 92 93 93 93 94 94 93 92 90 89 87 84 82 80 79 79 79 78 80 82 81 77 77 77 77 78 79 79 81 82 84 85 86 87 86 85 84 85 85

ECMWFNIL_prec_cthk_096.txt.gz
RH
67 61 59 56 54 56 60 62 62 65 68 69 70 73 75 75 73 71 71 70 70 71 71 71 72 72 73 72 70 68 67 66 67 69 69 67 66 66 65 63 61 59
76 70 67 63 62 64 65 65 65 68 72 73 72 74 76 76 74 72 72 72 72 73 73 72 72 72 72 72 72 70 67 65 68 71 68 64 64 65 65 63 59 54
82 80 76 69 66 69 68 66 66 69 74 75 75 77 78 77 75 72 72 73 74 75 74 72 72 73 72 73 75 73 68 67 69 69 67 65 65 64 64 62 57 52
85 84 80 71 66 67 67 65 64 68 73 76 79 84 82 78 76 73 71 72 74 74 72 70 72 74 74 76 76 72 68 67 68 66 65 67 66 63 62 60 56 52
88 89 82 71 66 66 66 65 66 69 75 79 83 88 86 79 76 74 72 73 74 74 72 71 74 75 76 77 74 69 66 66 65 65 65 66 66 63 60 57 54 53
92 94 85 73 69 66 64 66 68 70 75 79 81 84 84 80 77 75 74 75 75 74 74 74 75 76 76 75 70 66 65 64 64 64 64 65 65 61 58 57 55 55
95 95 86 77 74 69 68 72 72 70 73 78 81 82 82 79 77 75 75 76 75 74 75 76 76 76 74 69 65 65 65 63 62 62 62 63 62 59 58 57 55 56
92 89 81 76 74 71 72 76 74 72 73 77 80 81 80 78 77 75 75 76 75 73 74 75 73 71 67 62 62 65 64 61 62 62 62 62 61 59 58 56 56 57
87 84 78 75 73 72 74 74 73 73 73 75 79 80 79 77 76 74 74 75 76 75 75 74 71 66 63 61 62 62 60 59 61 62 62 63 61 59 57 56 57 58
85 81 78 77 74 73 76 75 73 73 73 75 80 81 79 78 77 77 75 75 78 79 78 76 71 66 63 61 59 58 57 59 61 63 64 63 62 59 58 58 59 59
84 79 77 78 76 76 78 76 74 76 77 79 82 82 80 79 79 80 80 80 82 83 81 78 72 65 62 59 56 56 58 60 61 62 61 60 60 59 61 62 62 62
80 79 78 77 77 77 78 76 76 77 79 82 83 82 81 80 79 81 85 86 85 83 80 75 68 61 58 56 56 56 57 57 58 58 57 58 59 61 64 66 65 65
77 78 78 77 77 78 78 79 79 79 81 83 83 82 84 84 82 84 87 86 85 82 73 64 58 55 56 57 57 56 55 55 55 55 55 58 61 63 67 69 68 69
75 78 79 79 81 81 80 81 83 84 85 85 83 83 87 88 86 87 88 86 86 82 66 53 52 55 59 61 59 57 56 56 57 55 55 59 63 67 71 72 72 73
76 82 84 85 86 84 82 85 88 89 89 88 86 85 87 89 88 89 89 84 83 78 63 53 56 60 62 61 58 57 58 59 59 58 57 60 64 67 70 71 72 73
77 86 90 90 89 87 86 87 90 92 91 90 89 87 86 88 90 91 88 83 80 73 62 55 57 61 62 60 57 58 60 62 61 59 59 61 63 65 67 68 70 70
78 86 92 93 92 92 91 89 90 93 92 91 90 88 87 90 91 90 87 81 74 66 58 55 56 59 60 59 59 61 63 63 63 62 61 61 61 63 66 68 69 68
82 87 92 95 95 95 94 91 92 93 92 93 92 89 89 91 90 86 81 72 64 58 55 55 55 57 59 59 61 62 63 64 66 66 65 63 62 65 69 70 70 69
86 88 93 97 98 97 95 94 94 94 92 92 91 90 91 90 84 78 71 63 59 57 55 54 56 57 57 58 60 61 62 66 69 68 65 63 65 69 71 71 71 70
85 88 93 98 99 98 97 95 94 94 92 91 92 93 92 86 76 68 62 59 59 59 56 55 56 57 55 55 58 60 62 65 67 67 66 66 69 71 72 70 69 67
82 88 92 97 99 98 97 96 95 94 92 91 93 94 90 81 70 63 59 57 57 59 59 58 58 57 56 56 59 61 62 63 65 65 67 69 72 72 71 70 69 69
81 86 90 93 98 99 98 97 96 95 93 93 94 94 89 79 69 63 59 58 57 59 61 61 61 60 59 59 61 63 61 61 63 63 65 69 72 74 74 73 75 76
76 83 88 91 94 96 98 99 97 95 92 93 95 93 86 77 69 64 61 60 59 59 61 62 62 63 63 63 63 64 63 62 63 63 64 69 74 76 77 78 78 80
72 77 83 88 92 92 93 96 97 96 92 90 91 90 83 75 70 66 63 61 60 60 60 61 62 64 65 65 65 66 66 65 63 64 67 72 77 79 80 81 82 83
69 72 75 81 88 91 91 92 94 94 92 89 88 88 84 77 71 66 64 64 63 62 61 61 62 64 65 66 68 70 70 68 67 68 70 73 77 81 83 85 87 87
67 69 71 74 80 86 89 93 94 92 91 91 91 89 86 81 74 67 65 66 66 65 65 63 64 66 67 70 72 72 73 75 75 77 79 80 82 84 86 88 89 87

ECMWFNIL_prec_cthk_102.txt.gz
RH
58 59 60 60 60 61 64 65 64 61 63 63 62 60 61 65 70 71 71 73 75 76 77 78 80 84 87 85 80 76 76 76 75 78 79 76 75 71 66 64 65 69
56 57 58 58 60 63 64 63 62 60 60 60 61 60 58 61 63 63 67 73 76 79 83 85 84 81 83 86 83 78 77 77 77 79 78 74 71 65 62 63 63 65
58 59 58 57 58 61 63 61 58 57 55 56 60 61 58 60 61 59 62 70 76 81 86 86 83 79 77 82 83 80 81 81 79 79 76 71 68 63 61 63 63 65
62 62 61 59 58 59 60 59 57 54 53 54 60 64 62 60 61 60 62 68 71 75 80 81 79 77 75 78 77 76 81 84 79 78 77 74 69 64 61 63 66 68
63 62 62 63 61 60 61 61 59 55 52 54 59 66 65 62 63 64 65 70 73 75 80 81 77 76 74 75 74 72 77 82 78 74 73 71 68 65 64 65 67 68
63 63 65 67 67 66 67 65 62 57 53 56 62 67 66 63 65 66 67 73 76 77 81 79 76 76 72 71 73 73 77 80 77 70 66 68 72 71 67 64 64 66
64 66 71 75 75 76 76 71 66 62 58 59 65 69 66 63 63 65 68 74 77 79 81 79 77 77 73 70 72 74 76 76 75 70 67 71 76 72 66 63 62 64
68 71 79 84 83 81 82 77 72 70 66 63 66 70 68 65 64 65 68 75 79 82 82 81 77 76 76 74 72 73 74 73 73 72 70 70 70 67 65 64 64 64
72 75 82 89 90 87 84 81 78 75 71 69 69 71 72 69 67 67 69 75 81 83 83 82 80 78 78 76 73 73 73 72 71 72 73 73 67 64 64 65 67 67
74 77 82 87 91 91 88 85 83 79 76 76 76 76 76 73 71 70 70 74 80 81 81 81 81 81 78 76 77 75 72 73 72 70 74 74 67 64 64 67 70 69
71 77 82 86 89 91 93 92 90 86 83 81 81 82 80 76 73 72 71 74 76 77 79 79 79 81 79 77 79 77 73 73 70 69 74 71 64 62 65 68 71 71
68 73 79 84 88 89 92 94 94 93 89 86 85 84 80 75 73 73 72 72 73 75 79 81 80 82 83 81 81 80 77 74 70 71 75 70 62 63 66 69 71 71
69 73 74 78 83 85 88 91 94 95 93 90 85 81 79 76 74 75 73 73 75 77 81 82 82 86 89 86 83 81 78 75 72 71 69 64 62 65 69 72 72 72
70 73 74 75 78 81 83 86 88 90 90 88 83 79 79 77 75 75 74 74 77 78 79 81 83 86 87 86 85 83 79 75 71 66 62 62 65 69 71 74 73 72
67 73 78 79 80 80 81 82 83 83 82 82 80 79 78 78 79 80 79 78 79 78 79 82 85 84 84 87 88 85 79 73 68 65 65 66 69 72 74 75 73 72
63 71 79 83 84 85 85 83 83 82 82 81 80 80 79 80 84 85 83 82 84 84 84 85 85 84 85 88 89 85 78 72 67 68 68 68 70 72 72 72 72 72
61 68 75 79 83 87 89 88 88 88 89 88 85 85 83 83 85 85 83 85 89 91 91 88 86 86 87 89 89 84 76 70 67 68 69 68 69 70 69 68 69 71
62 66 69 72 77 84 88 91 93 94 94 92 90 90 90 88 88 87 87 89 91 93 94 91 88 89 91 92 89 79 68 65 67 67 68 69 69 68 69 69 70 72
61 64 65 66 72 79 84 89 95 97 97 96 94 94 94 93 92 90 91 93 95 94 94 92 90 91 93 92 85 72 63 63 67 66 66 69 72 74 75 74 72 74
57 61 63 63 66 72 78 84 91 96 98 98 97 97 97 96 94 94 95 96 97 96 94 92 91 94 94 87 75 66 61 65 70 68 65 69 75 79 78 73 70 72
54 58 61 62 64 66 70 76 83 91 96 98 98 98 98 97 96 97 98 97 96 96 95 93 93 94 91 80 69 62 61 64 70 71 69 72 77 79 77 72 70 72
52 56 59 60 61 63 65 69 75 83 90 95 97 98 99 99 99 99 99 97 95 95 95 94 93 93 88 76 65 61 62 64 69 72 72 71 73 77 79 76 72 72
50 53 57 58 58 60 63 66 71 76 79 83 91 98 100 99 98 98 97 96 95 95 95 93 91 89 83 72 63 62 65 67 67 67 65 64 66 72 76 75 72 70
49 51 55 57 58 59 61 62 66 69 69 70 79 93 99 98 98 97 96 95 94 94 94 92 91 88 81 70 64 64 64 62 60 59 60 60 61 66 71 74 73 71
51 51 53 55 58 59 59 59 59 62 65 67 72 82 91 94 96 97 96 95 94 94 93 91 89 86 79 70 66 65 61 58 60 65 69 72 69 67 71 76 75 73
54 53 54 56 58 59 58 57 56 57 63 66 68 72 79 84 90 93 94 93 91 89 89 89 87 84 78 72 68 63 57 58 64 72 78 84 82 75 74 76 75 74

ECMWFNIL_prec_cthk_108.txt.gz
RH
44 43 43 43 42 43 45 46 46 46 47 48 48 49 53 60 64 66 66 65 61 58 59 62 61 60 64 69 74 78 81 84 85 83 81 81 82 81 81 83 84 85
41 41 42 43 44 46 48 49 50 51 50 51 52 53 53 56 60 63 69 73 70 65 63 64 63 61 64 68 73 77 80 83 85 84 83 83 81 80 80 81 82 83
41 42 43 43 45 48 51 52 53 54 53 51 52 53 53 54 57 62 69 72 71 69 68 67 65 63 63 67 71 75 77 79 82 83 84 83 80 80 81 81 81 81
43 44 45 46 48 51 54 54 54 54 53 52 53 56 59 60 62 65 69 68 68 71 72 70 67 64 62 65 69 71 73 75 78 80 81 81 79 79 79 80 80 79
44 46 47 48 50 53 54 54 53 52 52 54 56 61 67 67 67 70 74 72 69 70 70 69 68 67 66 67 68 69 71 75 79 81 80 79 77 76 76 77 76 75
48 48 48 50 53 54 53 51 51 51 54 58 61 66 71 71 69 71 74 74 72 71 69 68 70 71 71 71 70 69 69 73 79 81 80 77 76 75 74 74 74 75
50 50 50 52 54 53 50 50 52 54 59 64 66 70 74 75 74 75 76 76 75 74 74 72 72 75 75 73 72 71 69 71 77 80 80 79 76 75 74 73 73 76
50 51 51 52 51 49 49 51 54 57 64 69 70 73 77 79 78 76 77 78 74 75 81 81 80 81 78 75 72 72 72 72 74 79 82 81 79 77 76 75 75 77
50 49 48 48 48 48 49 52 55 60 68 74 74 75 79 81 79 74 73 74 71 75 85 87 85 86 82 77 75 75 75 75 76 78 81 81 80 79 78 78 78 78
48 45 44 46 46 47 49 51 56 61 69 76 78 78 80 81 77 72 71 71 72 77 83 83 82 85 86 82 83 84 83 84 83 80 80 80 79 79 79 79 79 79
45 43 44 45 45 46 49 52 56 61 68 76 79 78 80 81 77 73 71 73 75 76 79 78 77 82 87 88 90 90 87 88 87 83 83 82 80 80 79 79 79 80
45 44 44 45 45 47 49 51 55 62 67 72 77 78 80 81 81 78 75 76 77 76 75 75 76 80 86 89 91 90 88 88 87 85 84 83 81 82 80 79 81 82
45 45 45 46 46 48 50 50 52 59 64 67 73 79 80 81 82 81 79 77 76 76 75 73 75 80 83 84 86 90 90 90 90 89 88 86 84 84 83 84 84 83
45 45 45 46 47 48 49 49 49 54 58 61 67 76 80 82 82 82 83 82 79 78 77 74 76 80 83 82 83 87 89 90 91 91 90 90 87 85 86 87 85 83
45 44 44 44 46 47 47 47 46 49 53 57 62 70 78 83 84 81 83 85 85 82 79 77 78 80 82 82 81 82 85 87 89 89 89 90 88 86 87 87 84 83
45 43 43 42 44 45 45 45 46 47 51 54 58 63 71 80 86 85 82 82 84 84 81 79 81 82 82 84 84 84 84 85 86 87 87 87 88 88 87 85 84 84
45 43 42 41 42 42 43 43 43 44 47 52 56 59 63 71 82 88 87 82 82 83 82 81 84 84 83 85 86 87 90 88 87 88 86 85 86 87 85 83 85 88
47 45 43 41 41 41 41 41 39 40 43 48 55 58 59 64 73 85 90 87 85 85 83 82 83 84 85 86 86 87 90 91 90 91 90 88 87 86 83 81 84 90
47 46 44 43 42 41 41 38 36 37 41 46 53 56 58 61 67 77 85 89 89 89 87 86 86 86 88 90 89 87 88 89 88 89 88 87 88 89 86 84 85 90
48 47 46 45 44 43 41 38 37 39 43 47 52 55 58 61 64 69 77 86 91 91 90 90 89 89 91 92 90 89 91 91 89 89 88 87 89 91 91 90 89 90
49 48 47 47 45 43 40 39 40 43 46 49 50 53 56 59 62 64 70 81 90 93 92 92 92 93 94 94 92 91 93 93 92 92 92 92 93 93 92 92 92 91
50 50 49 47 45 44 41 41 44 46 48 49 49 51 55 57 59 62 65 73 85 93 95 95 95 96 96 95 93 93 95 96 95 95 94 95 95 93 91 92 93 93
51 51 50 48 45 45 45 45 46 46 48 49 50 53 56 57 59 61 62 67 77 86 92 95 98 98 97 96 95 96 97 96 94 94 96 96 95 94 95 95 96 96
52 53 52 50 47 48 49 48 47 47 50 52 53 56 60 60 60 61 62 66 72 79 86 92 98 100 97 97 97 97 97 95 93 93 96 98 97 96 97 97 97 97
52 53 54 52 50 51 52 51 48 49 52 55 56 59 62 61 60 61 61 64 70 75 78 82 89 94 94 95 97 96 95 93 90 91 93 94 94 95 95 96 97 98
54 55 56 54 52 54 56 56 53 52 53 54 56 60 60 58 57 59 59 61 64 67 70 73 77 81 85 90 94 96 94 91 90 91 91 90 92 95 95 94 95 97

ECMWFNIL_prec_cthk_111.txt.gz
RH
48 46 44 43 42 42 43 44 46 48 49 49 50 50 50 50 50 52 54 56 58 61 64 67 69 70 70 67 65 64 70 80 85 90 95 96 94 92 88 86 86 85
42 41 41 41 41 42 43 45 47 48 49 49 49 48 47 46 48 52 56 57 59 61 62 64 68 72 73 71 66 63 68 77 82 87 93 95 95 93 89 88 87 86
40 41 42 42 41 43 45 47 48 48 48 47 46 46 46 47 51 55 57 58 63 67 65 65 69 73 77 77 73 68 68 74 80 85 91 94 95 94 91 90 89 88
42 42 42 43 44 46 47 47 47 46 46 46 46 47 48 51 58 60 60 64 70 70 66 68 73 77 79 80 80 76 71 73 78 83 89 92 94 95 93 92 91 90
43 43 44 44 45 47 46 46 46 44 44 44 46 49 51 55 63 66 67 72 76 72 67 69 74 75 75 75 77 75 72 73 77 83 88 89 93 96 95 94 94 93
42 44 44 44 44 44 44 43 42 41 42 44 48 52 54 58 66 71 75 79 79 75 71 72 73 71 70 70 70 71 73 77 80 84 87 88 93 97 96 95 95 93
43 42 42 42 42 43 41 40 39 40 43 46 50 54 56 61 68 75 79 79 78 77 74 73 71 69 68 67 67 71 77 81 82 85 86 86 91 96 95 93 91 89
41 40 39 41 42 41 40 39 39 42 44 46 50 54 56 60 68 76 80 78 75 74 72 70 68 67 68 68 69 73 79 82 83 84 85 84 87 91 89 86 85 84
40 39 40 42 42 41 40 41 42 43 45 46 48 51 53 57 65 75 81 80 75 71 70 70 68 66 69 72 75 77 80 82 82 81 82 83 84 85 84 83 82 83
41 40 41 44 43 42 42 42 43 44 45 45 47 49 52 56 63 73 79 81 78 73 71 71 70 70 72 77 79 79 79 79 78 78 81 83 83 83 83 84 83 84
41 42 43 44 43 42 43 42 43 42 43 44 46 49 52 55 62 70 76 80 82 79 73 70 71 71 73 77 80 80 80 79 78 79 81 82 83 84 87 90 90 89
42 43 43 43 42 43 42 41 39 39 40 43 46 49 52 55 61 68 75 80 85 84 77 73 73 75 74 77 81 82 82 82 81 82 82 83 85 86 89 94 94 91
43 43 42 42 42 42 40 38 36 36 38 42 45 48 50 53 57 65 73 79 85 86 83 78 77 76 75 77 81 84 85 84 83 84 85 85 85 87 90 93 92 89
43 43 42 41 42 41 38 35 33 33 35 39 44 46 49 52 55 60 69 77 82 83 84 83 81 78 77 79 82 85 86 86 86 87 87 88 90 92 93 93 90 89
44 44 42 42 42 41 38 35 33 32 32 36 41 45 49 53 55 57 64 74 79 80 80 83 83 83 83 82 82 83 84 86 86 87 88 92 94 94 94 94 91 90
44 43 42 43 43 41 39 35 33 31 31 33 39 44 48 52 55 57 60 69 77 81 83 83 83 85 86 85 84 84 84 85 86 87 88 92 93 92 93 95 93 91
44 44 44 44 43 42 38 35 34 33 31 33 38 42 45 49 54 56 58 65 74 81 86 87 86 85 85 85 85 85 85 85 86 87 88 90 90 89 91 93 93 92
45 45 45 45 44 42 39 37 37 36 36 37 40 41 43 47 51 54 56 61 69 77 83 88 89 87 85 85 85 85 87 88 89 91 92 93 91 89 91 92 90 91
47 47 47 46 44 42 41 40 41 41 40 39 39 39 41 44 49 52 54 58 66 75 82 87 91 91 90 90 89 89 90 91 91 92 92 93 93 92 94 94 92 92
49 48 47 45 43 42 42 42 42 42 40 38 38 40 41 44 48 52 54 58 65 75 80 83 89 93 94 94 93 93 93 92 92 92 91 90 91 92 93 95 95 94
49 47 45 43 42 42 42 43 43 42 40 38 39 41 42 46 50 54 56 58 64 75 81 82 84 92 96 96 95 94 95 95 94 94 93 93 92 92 93 95 97 95
50 46 44 43 43 43 43 44 44 44 42 42 42 41 44 49 53 56 58 60 63 72 81 82 82 88 95 97 96 96 95 96 96 96 96 96 96 96 97 97 98 97
50 47 45 45 45 44 45 46 46 47 48 47 45 45 47 52 55 57 59 61 62 67 76 82 82 84 88 91 93 95 95 93 93 94 97 98 98 99 99 98 98 98
50 48 47 47 47 47 48 49 48 51 53 51 49 50 51 54 56 57 58 59 59 62 69 78 83 85 88 88 88 92 95 94 91 91 94 97 98 98 99 99 99 99
52 52 53 53 53 52 51 52 53 55 55 53 51 52 54 55 55 56 56 56 56 57 62 70 78 84 86 84 81 84 89 91 91 91 92 96 97 98 99 99 99 99
56 58 59 59 58 55 54 56 59 60 58 54 53 53 54 55 55 55 55 55 55 55 58 65 73 79 80 79 78 79 81 82 84 87 91 94 95 96 99 99 99 99

ECMWFNIL_prec_cthk_114.txt.gz
RH
42 41 42 42 41 41 40 40 40 42 42 42 42 41 41 40 40 40 41 42 46 52 57 60 60 62 66 67 66 67 70 71 73 77 80 81 86 91 93 92 94 97
41 41 41 41 40 39 39 40 40 41 40 40 40 40 39 39 38 40 44 48 52 58 64 66 66 68 69 69 68 67 70 72 73 74 71 74 84 90 91 91 92 95
41 40 40 39 39 38 39 40 39 39 39 39 38 38 38 38 40 43 48 51 55 62 69 72 73 74 72 70 71 71 70 72 75 73 69 71 79 85 89 91 90 92
41 40 40 40 39 39 40 40 39 40 39 38 36 37 38 40 42 46 48 51 55 64 74 77 76 76 72 70 73 72 71 73 75 73 70 71 76 80 86 88 87 87
42 41 40 39 40 40 40 38 39 39 37 35 34 36 39 41 43 45 47 48 55 67 77 77 75 76 75 71 72 74 73 74 76 75 71 70 74 78 82 85 85 85
42 40 38 37 38 38 36 36 37 37 36 35 35 37 40 42 42 45 46 48 57 69 77 76 73 74 76 75 74 75 75 73 73 73 70 68 73 78 81 83 84 85
40 38 38 39 39 38 37 38 39 38 37 36 36 38 40 41 42 45 47 48 57 68 76 76 72 71 74 74 74 74 74 73 71 71 71 70 73 78 80 81 83 85
40 39 40 41 40 39 39 40 39 38 37 37 37 38 38 39 42 46 47 48 55 66 74 76 72 70 71 71 71 72 71 71 70 71 73 73 74 77 78 78 82 87
42 41 41 40 40 39 39 38 38 37 35 36 37 36 36 38 42 45 47 48 53 62 72 75 72 70 71 71 71 72 74 75 75 76 77 76 76 79 79 79 82 87
43 42 41 40 40 38 36 36 37 35 34 33 34 34 35 37 41 44 47 49 51 59 70 76 73 69 70 74 76 77 78 77 79 81 79 77 79 81 81 81 83 86
43 41 41 40 39 36 35 35 34 33 33 33 32 32 33 35 38 42 46 48 50 58 70 77 76 72 71 74 77 80 80 77 79 82 80 80 84 84 83 83 83 84
41 39 38 36 36 35 35 34 33 32 33 32 31 32 32 33 36 39 44 47 49 55 68 76 78 77 75 75 78 81 83 82 82 85 83 84 88 86 84 84 83 83
39 36 35 35 35 36 35 33 31 31 31 31 30 32 32 32 33 37 42 47 48 52 62 70 75 78 79 79 79 81 84 84 84 85 85 86 87 87 86 86 86 86
39 37 36 36 36 35 32 31 30 31 31 30 30 32 34 33 33 37 41 47 50 50 55 63 69 75 81 83 84 86 86 86 87 86 86 86 87 88 87 87 89 89
41 39 37 36 35 33 31 30 30 31 32 32 31 33 36 35 33 35 40 46 50 50 52 59 66 73 79 83 86 89 90 89 90 89 88 88 89 89 89 89 90 90
42 39 37 36 34 33 32 32 33 34 35 34 34 34 35 35 33 34 38 43 48 50 51 58 66 72 78 83 86 89 90 90 91 89 89 89 90 91 90 90 92 91
43 39 38 37 35 35 36 37 38 38 37 36 35 34 35 34 34 36 39 42 47 50 51 56 66 72 76 83 88 89 90 90 90 89 89 90 90 91 92 92 93 92
44 41 40 39 38 39 40 40 40 39 37 35 34 34 35 35 36 38 42 45 49 52 53 58 67 73 77 85 91 92 91 91 91 91 91 92 92 92 94 95 95 94
44 42 43 43 42 43 42 41 40 38 36 35 34 34 36 39 41 43 46 48 51 53 55 59 67 75 81 88 91 92 94 93 93 93 93 93 94 95 96 96 95 95
45 45 46 46 46 45 43 40 39 37 36 36 35 36 40 44 45 46 50 53 55 56 57 60 66 74 82 87 87 89 92 94 94 94 94 94 94 95 96 96 95 94
47 48 50 49 47 45 43 41 40 38 37 37 37 39 44 47 47 48 53 57 58 58 58 60 64 69 75 83 87 88 90 92 95 97 97 97 97 97 97 97 96 96
50 51 52 51 49 46 44 44 42 41 40 40 40 42 45 48 49 49 53 58 60 59 58 59 62 65 71 80 87 87 84 83 87 93 96 97 98 99 99 99 98 98
53 53 53 53 51 49 47 46 45 45 45 45 44 46 48 51 52 52 53 57 60 60 60 61 61 64 70 78 83 81 78 76 79 87 94 96 97 99 100 99 99 99
55 54 54 54 53 52 51 51 50 51 52 52 50 50 51 53 54 54 55 58 60 60 61 61 61 62 65 70 74 72 72 74 75 79 87 93 96 97 98 97 97 98
58 56 55 54 55 56 57 56 57 58 59 58 55 54 54 55 56 57 57 59 58 58 59 60 61 61 62 65 67 66 67 70 73 74 78 85 92 95 95 94 95 98
60 58 58 57 58 60 61 61 62 63 63 61 59 58 57 56 58 59 59 59 58 58 60 61 62 62 63 64 65 64 64 65 68 71 74 78 84 90 93 94 95 98

ECMWFNIL_prec_cthk_117.txt.gz
RH
41 41 40 40 40 40 39 39 39 39 40 41 41 40 40 38 36 35 34 34 36 37 38 41 45 51 58 64 67 67 67 69 69 68 70 70 71 74 79 81 80 81
42 42 42 41 40 39 39 38 38 39 41 41 39 38 37 36 35 35 35 36 36 37 39 42 46 54 64 71 71 70 70 72 72 71 70 71 71 73 76 78 78 81
42 43 42 41 40 40 39 38 39 40 39 38 36 35 34 33 33 34 35 36 36 37 40 43 47 57 70 76 73 71 71 72 73 72 73 73 73 74 75 75 77 84
43 43 43 41 40 38 37 36 37 37 36 34 32 32 32 32 32 33 34 35 35 37 41 44 48 60 73 76 73 72 72 73 74 75 76 75 75 77 76 75 80 87
43 43 41 39 37 35 34 34 33 33 31 30 31 32 32 32 33 33 33 34 35 37 43 45 48 61 73 74 72 72 75 75 76 77 76 76 78 79 76 77 82 87
42 41 39 36 34 34 33 32 30 29 30 31 32 32 33 33 33 33 33 34 35 37 43 45 49 62 72 73 70 70 74 77 78 78 78 80 82 81 77 77 80 85
43 41 38 35 34 34 33 31 30 30 31 32 32 32 32 31 31 31 32 35 35 37 43 46 49 62 72 73 70 69 70 74 76 77 77 79 81 82 79 77 80 85
44 42 38 35 35 34 32 31 31 32 32 32 31 30 30 29 30 30 31 34 35 37 44 46 49 61 72 73 71 71 70 70 72 74 75 75 75 78 81 82 84 87
45 43 38 34 33 33 31 30 31 32 31 30 28 28 28 28 29 29 30 33 34 37 44 47 48 57 70 75 72 71 72 71 71 73 75 77 77 79 84 87 86 85
47 44 39 35 33 32 31 31 30 30 30 29 27 27 28 28 29 30 31 32 34 36 42 47 48 53 65 74 74 72 73 73 73 73 76 81 85 86 88 90 88 85
45 40 37 34 33 33 32 31 30 29 28 28 27 27 27 28 29 30 32 32 33 35 40 45 48 49 57 67 73 75 75 74 75 75 76 80 84 87 89 89 89 88
42 37 35 34 34 34 32 30 29 29 28 28 27 27 27 29 29 30 31 32 33 35 39 44 46 47 53 62 70 77 80 78 78 79 79 80 84 89 92 91 90 91
40 36 35 35 35 33 31 30 29 28 27 27 27 28 28 29 30 30 31 31 33 36 40 45 46 45 51 60 67 75 82 82 80 81 82 84 86 89 91 92 92 93
39 36 36 35 34 32 31 31 30 29 30 30 31 32 32 31 30 30 30 31 34 37 41 45 48 46 49 59 65 70 78 82 83 83 85 86 87 89 91 92 93 95
39 36 36 35 34 34 33 33 32 33 35 35 36 36 34 33 31 29 30 31 34 38 42 47 50 49 50 58 63 65 73 81 84 84 85 87 89 90 92 94 94 95
39 37 37 37 37 37 36 36 35 36 37 37 37 37 36 35 34 31 31 33 36 41 46 49 52 52 53 59 66 69 74 81 84 85 85 87 88 89 91 94 95 96
40 39 39 40 40 40 39 38 38 38 38 38 38 39 39 38 37 35 35 38 42 47 51 53 54 54 54 59 67 72 76 80 83 86 88 87 88 89 91 93 95 96
42 42 43 43 42 41 40 40 40 39 39 40 40 39 40 41 40 39 40 44 48 51 55 56 56 55 54 57 65 70 74 78 82 86 89 89 89 90 92 93 94 95
47 46 46 45 43 42 42 41 41 41 42 43 43 42 42 42 42 41 43 48 52 55 56 56 56 56 54 56 62 68 73 79 82 83 86 89 90 91 93 94 95 95
51 50 48 47 45 44 43 42 43 45 46 47 45 44 43 43 43 44 46 50 54 56 56 55 54 55 53 52 56 63 71 78 79 75 78 84 90 93 94 95 96 97
55 53 50 48 47 45 44 44 45 47 49 49 48 47 47 46 46 47 49 52 55 57 57 55 54 54 52 50 52 57 65 72 72 69 70 77 86 93 96 95 96 97
57 56 53 50 49 47 46 45 46 48 49 50 50 51 52 51 52 53 54 56 57 58 58 56 55 55 53 50 50 52 57 63 66 65 66 71 79 88 93 95 96 96
60 58 55 53 51 50 48 47 48 49 51 52 53 54 54 55 58 59 59 61 62 62 61 59 59 58 55 52 51 51 53 57 60 61 63 68 74 81 90 95 97 96
63 60 56 54 53 51 50 49 50 51 53 55 55 56 58 59 60 60 61 63 64 65 64 63 61 60 57 54 53 53 53 55 57 59 63 67 71 76 83 88 91 92
63 60 56 55 54 54 53 53 54 56 58 59 59 59 61 62 61 61 62 62 63 63 63 62 61 60 58 56 55 55 55 54 55 57 61 65 67 70 74 79 84 88
63 61 59 58 58 57 57 58 61 63 64 64 63 63 64 64 63 61 60 61 62 62 63 63 62 61 60 59 58 57 56 55 54 56 58 60 63 66 71 76 81 85

ECMWFNIL_prec_cthk_123.txt.gz
RH
51 50 47 44 43 41 40 38 34 30 28 26 24 24 25 25 25 25 24 24 24 25 26 26 26 26 26 28 30 32 36 40 42 47 55 61 66 70 70 71 73 74
52 51 47 45 43 41 40 37 33 31 28 26 25 25 25 25 26 26 25 24 24 24 25 24 24 25 26 28 29 32 36 40 42 47 55 62 67 71 72 72 74 74
54 51 47 45 43 42 40 35 31 29 28 27 26 26 26 26 27 27 25 24 23 24 23 23 24 25 27 28 29 31 36 40 42 47 57 64 68 71 73 74 76 77
54 50 46 44 43 42 39 35 31 29 29 28 27 28 28 28 28 27 25 24 23 23 23 24 24 27 28 28 28 31 37 42 44 47 56 66 69 71 74 76 79 80
52 47 45 44 43 41 37 33 31 31 31 29 28 29 30 29 28 26 25 24 23 24 23 24 26 27 28 27 29 33 39 45 47 47 54 64 70 72 74 77 79 80
49 45 44 43 42 38 35 32 32 33 32 30 29 30 30 29 27 26 26 25 24 24 23 24 26 27 28 28 31 35 40 46 48 49 53 61 68 73 75 75 77 79
48 46 44 42 39 35 33 33 35 35 33 31 30 30 29 29 28 27 27 26 25 25 24 26 27 28 28 28 31 36 41 46 48 50 55 59 65 72 76 78 77 79
48 46 42 39 36 34 34 36 37 36 34 31 30 30 29 28 28 28 27 27 27 27 27 28 29 28 28 28 31 37 42 46 48 52 58 62 65 68 74 80 81 80
46 43 40 37 35 35 37 39 38 36 34 32 30 31 30 29 29 28 28 28 28 29 29 30 29 28 28 30 33 39 44 45 48 52 59 63 65 66 71 80 84 83
45 42 39 37 37 39 40 39 38 36 34 33 33 33 32 31 30 29 29 29 29 30 30 30 30 29 30 32 36 41 44 46 47 51 57 62 65 67 72 80 85 86
44 41 39 39 41 41 41 40 38 37 36 35 35 35 34 33 31 31 31 31 31 32 32 32 32 33 33 35 38 42 46 47 48 49 54 59 62 66 74 81 86 88
43 41 41 42 42 42 42 41 40 39 37 36 36 36 36 34 34 33 33 34 36 36 35 36 36 36 35 35 38 43 46 48 48 48 51 58 62 65 71 78 84 87
46 45 44 44 44 44 43 43 42 40 38 37 37 38 38 37 36 36 37 39 40 38 37 37 37 36 35 35 39 44 46 47 48 49 51 58 63 62 64 71 80 85
49 48 46 46 46 45 45 45 43 40 38 38 39 41 41 41 41 41 42 42 40 38 37 36 34 34 35 37 41 44 46 47 48 49 52 58 64 63 60 66 75 82
51 49 48 48 48 47 47 46 44 41 40 42 43 44 44 44 44 44 42 41 39 37 36 33 32 33 36 39 43 45 46 47 48 48 50 56 63 64 60 62 70 76
53 52 51 50 49 48 48 46 45 43 44 46 47 47 46 46 45 44 41 39 36 35 33 31 32 34 36 40 43 45 46 46 47 47 49 53 60 62 59 59 65 71
55 54 53 51 50 50 50 49 48 48 49 50 48 47 47 47 45 43 40 36 35 34 33 33 34 35 37 42 46 47 46 45 46 47 48 50 54 57 57 58 63 69
57 55 54 53 52 53 53 53 52 52 53 52 50 49 48 46 44 41 39 37 35 34 34 35 36 38 41 45 49 49 48 47 47 48 47 48 50 54 56 57 60 66
58 57 56 55 55 56 56 56 55 54 53 51 49 48 46 43 42 40 38 37 36 36 37 38 40 42 43 46 49 50 49 49 48 47 47 48 49 51 52 54 55 59
60 59 58 56 57 58 58 59 58 56 53 50 48 46 44 42 41 40 39 38 38 39 40 41 44 46 46 47 48 49 49 49 48 47 47 47 48 49 49 51 52 54
61 60 58 56 57 58 59 59 58 56 54 51 48 45 44 44 43 41 40 41 42 43 44 45 48 50 50 50 50 51 51 51 49 48 47 47 48 49 50 51 53 55
62 60 57 57 57 59 59 58 57 55 54 52 50 47 46 46 45 44 44 45 47 47 47 49 51 52 52 52 52 52 52 51 51 49 47 47 48 50 51 51 53 56
62 59 58 58 58 58 58 57 56 55 54 53 52 50 48 47 46 48 48 49 50 50 51 52 54 54 54 54 54 52 51 51 51 51 49 50 50 50 51 54 55 56
62 60 59 58 58 57 56 57 56 55 54 53 52 51 50 49 49 51 52 53 54 54 55 56 56 56 55 55 55 53 51 51 52 53 53 52 51 51 52 55 57 57
62 61 60 59 57 56 56 56 55 53 52 52 53 53 53 53 54 54 55 56 57 58 58 57 56 56 56 56 55 54 52 51 52 54 55 54 52 52 53 57 59 60
64 63 60 58 58 57 56 55 53 52 52 53 54 56 57 58 59 59 59 60 61 60 58 56 55 55 56 56 56 55 53 53 53 54 55 54 52 52 54 57 60 62